DW3039 Karjalohja FI current weather conditions

sailwx.info

Wind from 199

Air temperature 1.1° C
Dewpoint 0.7° C

Last reported at 2014-Dec-20 15:45 UTC.
Time now 2014-Dec-20 16:31 UTC

Location: N 60°16' E 023°41'.
View on Google Maps.

See reports from other nearby stations

  
Tides and Currents Weather Stations Pressure Air Temp Water Temp Dewpoint Dewpoint Depression Visibility Wind Speed Wind Dir Waves Ship Positions
date/time (UTC)wind fromknots sea level pressurealtimeterstation pressurevisibilityair tempwater tempwave heightnotes
2014-Dec-20 15:45 199 1.1
2014-Dec-20 15:35 230 2 gusting 6 1.1
2014-Dec-20 15:25 242 0 gusting 6 1.1
2014-Dec-20 15:15 263 1.1
2014-Dec-20 15:05 231 1.1
2014-Dec-20 14:55 244 1.1
2014-Dec-20 14:45 208 1.1
2014-Dec-20 14:35 214 0 gusting 4 1.1
2014-Dec-20 14:25 221 2 gusting 5 1.1
2014-Dec-20 14:15 223 1.1
2014-Dec-20 14:05 218 2 gusting 6 1.1
2014-Dec-20 13:55 193 0 gusting 6 1.1
2014-Dec-20 13:45 205 0 gusting 2 1.1
2014-Dec-20 13:35 232 0 gusting 4 1.1
2014-Dec-20 13:25 149 1.7
2014-Dec-20 13:15 149 1.7
2014-Dec-20 13:05 149 1.7
2014-Dec-20 12:55 196 1.7
2014-Dec-20 12:45 230 1.7
2014-Dec-20 12:35 238 1.7
2014-Dec-20 12:25 229 0 gusting 6 1.7
2014-Dec-20 12:15 206 1.7
2014-Dec-20 12:04 206 1.7
2014-Dec-20 11:54 237 1.7
2014-Dec-20 11:44 243 1 gusting 8 1.7
2014-Dec-20 11:34 259 1 gusting 6 1.7
2014-Dec-20 11:24 247 3 gusting 6 1.7
2014-Dec-20 11:14 223 1 gusting 5 1.7
2014-Dec-20 11:04 175 1.7
2014-Dec-20 10:54 239 1.7
2014-Dec-20 10:44 210 1.7
2014-Dec-20 10:34 222 4 gusting 6 1.7
2014-Dec-20 10:24 256 1.7
2014-Dec-20 10:14 224 1 gusting 6 1.7
2014-Dec-20 10:04 235 2 gusting 6 1.7
2014-Dec-20 09:54 234 3 gusting 8 1.7
2014-Dec-20 09:44 241 2 gusting 7 1.7
2014-Dec-20 09:34 219 4 gusting 6 1.7
2014-Dec-20 09:24 215 5 gusting 8 1.7
2014-Dec-20 09:14 230 3 gusting 10 1.7
2014-Dec-20 09:04 237 0 gusting 2 1.7
2014-Dec-20 08:54 204 1.7
2014-Dec-20 08:44 210 0 gusting 4 1.7
2014-Dec-20 08:34 189 1.7
2014-Dec-20 08:24 189 1.7
2014-Dec-20 08:14 210 2 gusting 5 1.7
2014-Dec-20 08:04 214 0 gusting 8 1.7
2014-Dec-20 07:54 224 2 gusting 8 1.7
2014-Dec-20 07:44 241 3 gusting 6 1.7
2014-Dec-20 07:34 208 0 gusting 7 1.1
2014-Dec-20 07:24 186 1.7
2014-Dec-20 07:14 186 1.7
2014-Dec-20 07:04 186 1.7
2014-Dec-20 06:54 208 1 gusting 6 1.7
2014-Dec-20 06:44 232 0 gusting 6 1.1
2014-Dec-20 06:34 210 1 gusting 6 1.1
2014-Dec-20 06:24 237 3 gusting 7 1.1
2014-Dec-20 06:14 214 1 gusting 6 1.1
2014-Dec-20 06:04 210 2 gusting 5 1.1
2014-Dec-20 05:54 193 0 gusting 7 1.1
2014-Dec-20 05:44 224 4 gusting 7 1.1
2014-Dec-20 05:34 218 6 gusting 9 1.1
2014-Dec-20 05:24 220 3 gusting 7 1.1
2014-Dec-20 05:14 220 4 gusting 7 1.1
2014-Dec-20 05:03 186 0 gusting 6 1.1
2014-Dec-20 04:53 205 3 gusting 6 1.1
2014-Dec-20 04:43 222 2 gusting 7 1.1
2014-Dec-20 04:33 224 4 gusting 8 1.1
2014-Dec-20 04:23 219 5 gusting 9 1.1
2014-Dec-20 04:13 196 3 gusting 7 1.1
2014-Dec-20 04:03 219 5 gusting 7 1.1
2014-Dec-20 03:53 225 3 gusting 7 1.1
2014-Dec-20 03:43 220 3 gusting 7 1.1
2014-Dec-20 03:33 220 0 gusting 5 1.1
2014-Dec-20 03:23 223 2 gusting 6 1.1
2014-Dec-20 03:13 203 0 gusting 5 1.1
2014-Dec-20 03:03 125 1.1
2014-Dec-20 02:53 169 1.1
2014-Dec-20 02:43 209 4 gusting 7 1.1
2014-Dec-20 02:33 224 3 gusting 5 1.1
2014-Dec-20 02:23 200 1.1
2014-Dec-20 02:13 208 1 gusting 5 1.1
2014-Dec-20 02:03 213 2 gusting 6 1.1
2014-Dec-20 01:53 215 1.7
2014-Dec-20 01:43 209 1 gusting 4 1.7
2014-Dec-20 01:33 177 1.7
2014-Dec-20 01:23 180 1.7
2014-Dec-20 01:13 191 1.7
2014-Dec-20 01:03 197 1.7
2014-Dec-20 00:53 215 1.7
2014-Dec-20 00:43 215 1.7
2014-Dec-20 00:33 221 1.7
2014-Dec-20 00:23 220 2 gusting 4 1.7
2014-Dec-20 00:13 217 2 gusting 6 1.7
2014-Dec-20 00:03 206 2 gusting 6 1.7
2014-Dec-19 23:53 217 2.2
2014-Dec-19 23:43 222 2 gusting 5 2.2
2014-Dec-19 23:33 162 2.2
2014-Dec-19 23:23 218 1 gusting 5 2.2
2014-Dec-19 23:13 191 2 gusting 5 2.2
2014-Dec-19 23:03 202 0 gusting 4 2.2
2014-Dec-19 22:53 239 2 gusting 6 2.8
2014-Dec-19 22:43 228 3 gusting 6 2.8
2014-Dec-19 22:33 213 4 gusting 8 2.8
2014-Dec-19 22:23 221 4 gusting 8 2.8
2014-Dec-19 22:13 230 3 gusting 6 2.8
2014-Dec-19 22:03 221 6 gusting 10 2.8
2014-Dec-19 21:53 221 4 gusting 7 2.8
2014-Dec-19 21:43 222 5 gusting 7 2.8
2014-Dec-19 21:33 209 4 gusting 9 2.8
2014-Dec-19 21:23 218 0 gusting 8 2.8
2014-Dec-19 21:13 224 6 gusting 9 2.8
2014-Dec-19 21:03 229 6 gusting 11 2.8
2014-Dec-19 20:53 243 5 gusting 8 2.8
2014-Dec-19 20:43 211 5 gusting 8 2.8
2014-Dec-19 20:33 225 6 gusting 11 2.8
2014-Dec-19 20:23 224 5 gusting 11 2.8
2014-Dec-19 20:12 208 5 gusting 9 2.8
2014-Dec-19 20:02 221 3 gusting 9 2.8
2014-Dec-19 19:52 209 2 gusting 6 2.8
2014-Dec-19 19:42 213 3 gusting 6 2.8
2014-Dec-19 19:32 220 4 gusting 6 2.8
2014-Dec-19 19:22 211 2 gusting 7 3.3
2014-Dec-19 19:12 214 6 gusting 9 3.3
2014-Dec-19 19:02 220 3 gusting 8 3.3
2014-Dec-19 18:52 210 5 gusting 11 3.3
2014-Dec-19 18:42 206 5 gusting 9 3.3
2014-Dec-19 18:32 209 5 gusting 10 3.3
2014-Dec-19 18:22 193 3 gusting 7 3.3
2014-Dec-19 18:12 212 0 gusting 7 3.3
2014-Dec-19 18:02 194 1 gusting 8 3.3
2014-Dec-19 17:52 214 3 gusting 7 3.3
2014-Dec-19 17:42 219 5 gusting 6 3.3
2014-Dec-19 17:32 181 2 gusting 7 3.3
2014-Dec-19 17:22 214 2 gusting 6 3.3
2014-Dec-19 17:12 212 3 gusting 7 3.3
2014-Dec-19 17:02 208 4 gusting 8 3.3
2014-Dec-19 16:52 225 4 gusting 9 3.3
2014-Dec-19 16:42 232 4 gusting 10 3.3
2014-Dec-19 16:31 231 4 gusting 10 3.3
2014-Dec-19 16:21 221 5 gusting 11 3.3
2014-Dec-19 16:11 202 1 gusting 12 3.9
2014-Dec-19 16:01 222 5 gusting 10 3.9
2014-Dec-19 15:51 222 4 gusting 13 3.9
2014-Dec-19 15:41 216 6 gusting 10 3.9
2014-Dec-19 15:31 200 6 gusting 15 3.9
2014-Dec-19 15:21 209 6 gusting 11 3.9
2014-Dec-19 15:11 218 5 gusting 15 3.9
2014-Dec-19 15:01 220 6 gusting 10 3.9
2014-Dec-19 14:51 216 5 gusting 11 3.9
2014-Dec-19 14:41 215 9 gusting 18 4.4
2014-Dec-19 14:31 220 6 gusting 10 4.4
2014-Dec-19 14:21 224 6 gusting 12 4.4
2014-Dec-19 14:11 202 6 gusting 11 4.4
2014-Dec-19 14:01 227 6 gusting 11 4.4
2014-Dec-19 13:51 214 4 gusting 9 4.4
2014-Dec-19 13:41 203 3 gusting 8 4.4
2014-Dec-19 13:31 198 0 gusting 6 4.4
2014-Dec-19 13:21 219 1 gusting 9 4.4
2014-Dec-19 13:11 202 3 gusting 6 4.4
2014-Dec-19 13:01 207 0 gusting 6 4.4
2014-Dec-19 12:51 222 3 gusting 8 4.4
2014-Dec-19 12:41 231 2 gusting 8 4.4
2014-Dec-19 12:31 214 6 gusting 9 4.4
2014-Dec-19 12:21 229 0 gusting 9 4.4
2014-Dec-19 12:11 219 3 gusting 7 4.4
2014-Dec-19 12:01 221 3 gusting 8 4.4
2014-Dec-19 11:51 202 0 gusting 9 4.4
2014-Dec-19 11:41 191 0 gusting 6 4.4
2014-Dec-19 11:31 222 4 gusting 9 4.4
2014-Dec-19 11:21 234 0 gusting 7 4.4
2014-Dec-19 11:11 226 3 gusting 8 4.4
2014-Dec-19 11:01 227 2 gusting 6 4.4
2014-Dec-19 10:51 169 3.9
2014-Dec-19 10:41 214 0 gusting 3 3.9
2014-Dec-19 10:31 208 0 gusting 4 3.9
2014-Dec-19 10:21 170 3.9
2014-Dec-19 10:11 182 3.9
2014-Dec-19 10:01 182 3.9
2014-Dec-19 09:51 182 3.9
2014-Dec-19 09:41 182 3.9
2014-Dec-19 09:31 182 3.3
2014-Dec-19 09:21 182 3.3
2014-Dec-19 09:11 182 3.3
2014-Dec-19 09:01 182 3.3
2014-Dec-19 08:51 182 3.3
2014-Dec-19 08:41 182 3.3
2014-Dec-19 08:31 182 3.3
2014-Dec-19 08:21 182 3.3
2014-Dec-19 08:11 182 3.3
2014-Dec-19 08:00 182 3.3
2014-Dec-19 07:50 182 3.3
2014-Dec-19 07:40 182 3.3
2014-Dec-19 07:30 182 3.3
2014-Dec-19 07:20 182 3.3
2014-Dec-19 07:10 182 3.3
2014-Dec-19 07:00 182 3.3
2014-Dec-19 06:50 079 3.3
2014-Dec-19 06:40 117 3.3
2014-Dec-19 06:30 132 3.3
2014-Dec-19 06:20 094 3.3
2014-Dec-19 06:10 135 3.3
2014-Dec-19 06:00 135 3.3
2014-Dec-19 05:50 135 3.3
2014-Dec-19 05:40 135 3.3
2014-Dec-19 05:30 135 3.3
2014-Dec-19 05:20 135 3.3
2014-Dec-19 05:10 135 3.3
2014-Dec-19 05:00 135 3.3
2014-Dec-19 04:50 135 3.3
2014-Dec-19 04:40 149 3.3
2014-Dec-19 04:30 125 3.3
2014-Dec-19 04:20 125 3.3
2014-Dec-19 04:10 125 3.3
2014-Dec-19 04:00 145 3.3
2014-Dec-19 03:50 132 3.3
2014-Dec-19 03:40 128 3.3
2014-Dec-19 03:30 128 3.3
2014-Dec-19 03:20 128 3.3
2014-Dec-19 03:10 128 3.3
2014-Dec-19 03:00 128 3.3
2014-Dec-19 02:50 128 3.3
2014-Dec-19 02:40 128 3.3
2014-Dec-19 02:30 128 3.3
2014-Dec-19 02:20 128 3.3
2014-Dec-19 02:10 128 3.3
2014-Dec-19 02:00 128 3.3
2014-Dec-19 01:50 128 3.3
2014-Dec-19 01:40 128 3.3
2014-Dec-19 01:30 128 3.3
2014-Dec-19 01:20 128 3.3
2014-Dec-19 01:10 128 3.3
2014-Dec-19 01:00 128 3.3
2014-Dec-19 00:50 128 3.3
2014-Dec-19 00:40 128 3.3
2014-Dec-19 00:30 116 3.3
2014-Dec-19 00:20 111 2.8
2014-Dec-19 00:10 175 2.8
2014-Dec-19 00:00 175 2.8
2014-Dec-18 23:50 131 2.8
2014-Dec-18 23:39 131 2.8
2014-Dec-18 23:29 136 2.8
2014-Dec-18 23:19 136 2.8
2014-Dec-18 23:09 136 2.8
2014-Dec-18 22:59 123 0 gusting 2 2.8
2014-Dec-18 22:49 138 0 gusting 2 2.8
2014-Dec-18 22:39 138 2.8
2014-Dec-18 22:29 166 2.8
2014-Dec-18 22:19 165 2.2
2014-Dec-18 22:09 165 2.2
2014-Dec-18 21:59 165 2.2
2014-Dec-18 21:49 197 2.2
2014-Dec-18 21:39 197 2.2
2014-Dec-18 21:29 197 2.2
2014-Dec-18 21:19 207 2.2
2014-Dec-18 21:09 207 2.2
2014-Dec-18 20:59 207 2.2
2014-Dec-18 20:49 207 2.2
2014-Dec-18 20:39 207 2.2
2014-Dec-18 20:29 207 2.2
2014-Dec-18 20:19 207 2.2
2014-Dec-18 20:09 204 0 gusting 5 2.2
2014-Dec-18 19:59 173 1.7
2014-Dec-18 19:49 173 1.7
2014-Dec-18 19:39 204 0 gusting 5 1.7
2014-Dec-18 19:29 204 0 gusting 5 1.7
2014-Dec-18 19:19 215 0 gusting 3 1.7
2014-Dec-18 19:09 192 1 gusting 6 1.7
2014-Dec-18 18:59 198 0 gusting 6 1.7
2014-Dec-18 18:49 179 1.7
2014-Dec-18 18:39 176 1.7
2014-Dec-18 18:29 152 1.7
2014-Dec-18 18:19 203 0 gusting 5 1.7
2014-Dec-18 18:09 198 0 gusting 4 1.7
2014-Dec-18 17:59 162 1.7
2014-Dec-18 17:49 179 0 gusting 8 1.7
2014-Dec-18 17:39 199 0 gusting 7 1.7
2014-Dec-18 17:29 209 2 gusting 6 1.1
2014-Dec-18 17:19 186 1 gusting 6 1.1
2014-Dec-18 17:09 205 2 gusting 7 1.1
2014-Dec-18 16:59 192 1 gusting 5 1.1
2014-Dec-18 16:49 122 0 gusting 3 1.1
2014-Dec-18 16:39 139 1.1
2014-Dec-18 16:29 156 1.1
2014-Dec-18 16:19 145 0 gusting 5 1.1
2014-Dec-18 16:09 157 1 gusting 5 1.1